Date String (YYYY-MM-DD hh:mm:ss) UTC,Instrument flags,Ambient pressure (hPa),Sample flow (lpm),Bypass flow (lpm),Sample temperature (°C),Ambient temperature (°C),ASC tube jacket temperature (°C),LED temperature (°C),Box temperature (°C),Sample RH (%),Span deviation,Mass concentration (μg/m³),Mass concentration (μg/m³),Mass concentration (μg/m³)
DateTimeUTC,F1_M11,P_M11,Q1_M11,Q2_M11,T1_M11,T2_M11,T3_M11,T4_M11,T5_M11,U1_M11,ZSPAN_M11,X0_M11,X2_M11,X1_M11
2022-11-15 23:00:00,,0831.4,5.00,0.00,21.2,19.4,00.0,30.2,22.9,10.1,0000.0,0007.72,0004.30,0004.04
2022-11-15 23:01:00,,0831.5,5.00,0.00,21.2,19.4,00.0,30.2,22.9,10.2,0000.0,0007.45,0004.30,0004.04
2022-11-15 23:02:00,,0831.5,5.00,0.00,21.2,19.4,00.0,30.2,22.8,10.1,0000.0,0007.45,0004.30,0004.04
2022-11-15 23:03:00,,0831.5,5.00,0.00,21.1,19.3,00.0,30.2,22.8,10.2,0000.0,0007.44,0004.30,0004.04
2022-11-15 23:04:00,,0831.5,5.00,0.00,21.1,19.3,00.0,30.2,22.8,10.4,0000.0,0007.18,0004.30,0004.04
2022-11-15 23:05:00,,0831.5,5.00,0.00,21.1,19.3,00.0,30.2,22.7,10.7,0000.0,0006.25,0004.29,0004.03
2022-11-15 23:06:00,,0831.5,5.00,0.00,21.1,19.3,00.0,30.1,22.7,10.4,0000.0,0006.11,0004.26,0004.04
2022-11-15 23:07:00,,0831.5,5.00,0.00,21.0,19.3,00.0,30.1,22.7,10.5,0000.0,0006.13,0004.27,0004.04
2022-11-15 23:08:00,,0831.4,5.01,0.00,21.0,19.2,00.0,30.1,22.7,10.5,0000.0,0005.99,0004.24,0004.04
2022-11-15 23:09:00,,0831.5,5.00,0.00,21.0,19.3,00.0,30.1,22.7,10.4,0000.0,0006.26,0004.27,0004.04
2022-11-15 23:10:00,,0831.5,5.02,0.00,21.1,20.2,00.0,30.0,22.9,10.4,0000.0,0006.40,0004.26,0004.03
2022-11-15 23:11:00,,0831.5,4.99,0.00,21.2,21.3,00.0,30.0,23.1,10.4,0000.0,0006.49,0004.26,0004.03
2022-11-15 23:12:00,,0831.5,4.99,0.00,21.3,21.4,00.0,30.1,23.3,10.4,0000.0,0006.90,0004.26,0004.03
2022-11-15 23:13:00,,0831.5,4.99,0.00,21.3,21.0,00.0,30.1,23.3,10.4,0000.0,0007.62,0004.27,0004.04
2022-11-15 23:14:00,,0831.5,5.02,0.00,21.3,20.7,00.0,30.2,23.2,10.3,0000.0,0007.61,0004.27,0004.03
2022-11-15 23:15:00,,0831.5,5.00,0.00,21.3,20.4,00.0,30.2,23.2,10.2,0000.0,0007.63,0004.27,0004.03
2022-11-15 23:16:00,,0831.5,4.99,0.00,21.3,20.2,00.0,30.2,23.1,10.2,0000.0,0008.02,0004.29,0004.03
2022-11-15 23:17:00,,0831.5,4.99,0.00,21.3,20.1,00.0,30.2,23.1,10.1,0000.0,0008.70,0004.28,0004.01
2022-11-15 23:18:00,,0831.5,5.01,0.00,21.3,20.0,00.0,30.2,23.1,10.1,0000.0,0008.65,0004.25,0003.99
2022-11-15 23:19:00,,0831.6,5.01,0.00,21.3,19.9,00.0,30.2,23.0,10.0,0000.0,0008.71,0004.27,0003.99
2022-11-15 23:20:00,,0831.6,4.99,0.00,21.3,19.8,00.0,30.2,23.0,10.1,0000.0,0008.62,0004.26,0003.97
2022-11-15 23:21:00,,0831.7,4.99,0.00,21.3,19.7,00.0,30.2,23.0,10.0,0000.0,0008.46,0004.25,0003.96
2022-11-15 23:22:00,,0831.7,5.00,0.00,21.3,19.7,00.0,30.2,23.0,09.9,0000.0,0008.38,0004.22,0003.93
2022-11-15 23:23:00,,0831.7,5.00,0.00,21.2,19.6,00.0,30.2,23.0,09.9,0000.0,0008.18,0004.17,0003.90
2022-11-15 23:24:00,,0831.7,5.00,0.00,21.2,19.6,00.0,30.2,23.0,09.9,0000.0,0007.44,0004.11,0003.87
2022-11-15 23:25:00,,0831.7,5.00,0.00,21.2,19.6,00.0,30.2,22.9,09.9,0000.0,0007.37,0004.07,0003.84
2022-11-15 23:26:00,,0831.7,5.00,0.00,21.2,19.6,00.0,30.2,22.9,09.9,0000.0,0007.39,0004.06,0003.82
2022-11-15 23:27:00,,0831.7,5.00,0.00,21.2,19.6,00.0,30.2,22.9,09.9,0000.0,0006.98,0004.03,0003.80
2022-11-15 23:28:00,,0831.7,5.00,0.00,21.2,19.6,00.0,30.2,22.9,09.9,0000.0,0005.46,0004.00,0003.78
2022-11-15 23:29:00,,0831.7,5.00,0.00,21.2,19.5,00.0,30.2,22.9,10.0,0000.0,0005.31,0003.99,0003.77
2022-11-15 23:30:00,,0831.7,5.00,0.00,21.2,19.5,00.0,30.2,22.9,10.1,0000.0,0005.25,0003.97,0003.75
2022-11-15 23:31:00,,0831.7,5.00,0.00,21.1,19.5,00.0,30.2,22.9,10.1,0000.0,0005.21,0003.95,0003.74
2022-11-15 23:32:00,,0831.7,5.01,0.00,21.1,19.5,00.0,30.1,22.9,10.1,0000.0,0005.26,0003.94,0003.73
2022-11-15 23:33:00,,0831.7,5.01,0.00,21.1,19.5,00.0,30.1,22.9,10.1,0000.0,0005.34,0003.95,0003.74
2022-11-15 23:34:00,,0831.8,5.00,0.00,21.1,19.5,00.0,30.1,22.9,10.1,0000.0,0005.56,0003.97,0003.75
2022-11-15 23:35:00,,0831.8,5.00,0.00,21.1,19.4,00.0,30.1,22.8,10.2,0000.0,0005.65,0004.00,0003.78
2022-11-15 23:36:00,,0831.8,5.00,0.00,21.1,19.4,00.0,30.1,22.8,10.0,0000.0,0005.72,0004.03,0003.81
2022-11-15 23:37:00,,0831.8,5.00,0.00,21.1,19.4,00.0,30.1,22.8,10.0,0000.0,0005.61,0004.02,0003.82
2022-11-15 23:38:00,,0831.7,5.01,0.00,21.1,20.0,00.0,30.0,22.9,10.0,0000.0,0005.73,0004.03,0003.84
2022-11-15 23:39:00,,0831.7,5.00,0.00,21.2,21.1,00.0,30.0,23.2,09.9,0000.0,0005.70,0004.05,0003.87
2022-11-15 23:40:00,,0831.7,4.99,0.00,21.3,21.4,00.0,30.0,23.3,09.8,0000.0,0005.68,0004.06,0003.88
2022-11-15 23:41:00,,0831.7,5.00,0.00,21.3,21.0,00.0,30.1,23.3,09.8,0000.0,0006.00,0004.06,0003.88
2022-11-15 23:42:00,,0831.8,5.00,0.00,21.3,20.6,00.0,30.1,23.2,09.8,0000.0,0007.13,0004.07,0003.89
2022-11-15 23:43:00,,0831.8,5.00,0.00,21.3,20.2,00.0,30.2,23.1,09.7,0000.0,0007.19,0004.07,0003.89
2022-11-15 23:44:00,,0831.7,5.00,0.00,21.3,19.9,00.0,30.2,23.0,09.7,0000.0,0007.20,0004.08,0003.90
2022-11-15 23:45:00,,0831.7,5.00,0.00,21.3,19.8,00.0,30.2,23.0,09.7,0000.0,0007.03,0004.08,0003.90
2022-11-15 23:46:00,,0831.7,5.00,0.00,21.2,19.7,00.0,30.2,22.9,09.8,0000.0,0007.00,0004.08,0003.90
2022-11-15 23:47:00,,0831.7,5.00,0.00,21.2,19.6,00.0,30.2,22.9,09.8,0000.0,0007.10,0004.08,0003.89
2022-11-15 23:48:00,,0831.7,5.00,0.00,21.2,19.5,00.0,30.2,22.9,09.9,0000.0,0007.18,0004.10,0003.89
2022-11-15 23:49:00,,0831.7,5.00,0.00,21.2,19.4,00.0,30.2,22.8,09.8,0000.0,0007.04,0004.08,0003.89
2022-11-15 23:50:00,,0831.7,5.01,0.00,21.1,19.4,00.0,30.1,22.8,09.9,0000.0,0007.07,0004.09,0003.88
2022-11-15 23:51:00,,0831.7,5.00,0.00,21.1,19.4,00.0,30.1,22.8,10.0,0000.0,0007.10,0004.10,0003.89
2022-11-15 23:52:00,,0831.8,5.00,0.00,21.1,19.3,00.0,30.1,22.8,10.0,0000.0,0006.87,0004.11,0003.91
2022-11-15 23:53:00,,0831.7,5.00,0.00,21.1,19.3,00.0,30.1,22.8,10.2,0000.0,0005.75,0004.12,0003.93
2022-11-15 23:54:00,,0831.7,5.00,0.00,21.0,19.3,00.0,30.1,22.8,10.2,0000.0,0005.69,0004.13,0003.94
2022-11-15 23:55:00,,0831.7,5.00,0.00,21.0,19.2,00.0,30.1,22.7,10.5,0000.0,0005.82,0004.15,0003.94
2022-11-15 23:56:00,,0831.7,5.00,0.00,21.0,19.2,00.0,30.1,22.7,10.8,0000.0,0005.91,0004.17,0003.94
2022-11-15 23:57:00,,0831.7,5.01,0.00,21.0,19.7,00.0,30.0,22.8,10.7,0000.0,0005.93,0004.16,0003.94
2022-11-15 23:58:00,,0831.7,5.00,0.00,21.1,20.8,00.0,30.0,23.0,10.6,0000.0,0005.85,0004.15,0003.93
2022-11-15 23:59:00,,0831.7,4.99,0.00,21.2,21.4,00.0,30.0,23.2,10.4,0000.0,0006.15,0004.18,0003.94
